Regional Weather Roundup
Issued by NWS Newport/Morehead, NC

Current Version | Previous Version | Text Only | Print | Product List | Glossary On
Versions: 1 2 3 4 5 6 7 8 9 10 11 12 13 14 15 16 17 18 19 20 21 22 23 24 25 26 27 28 29 30 31 32 33 34 35 36 37 38 39 40 41 42 43 44 45 46 47 48 49 50
000 ASUS42 KMHX 270910 RWRMHX WEATHER ROUNDUP FOR EASTERN NORTH CAROLINA NATIONAL WEATHER SERVICE NEWPORT/MOREHEAD CITY NC 400 AM EST TUE JAN 27 2015 NOTE: "FAIR" INDICATES FEW OR NO CLOUDS BELOW 12,000 FEET WITH NO SIGNIFICANT WEATHER AND/OR OBSTRUCTIONS TO VISIBILITY NCZ015>017-031-032-045>047-102-103-271000- NORTH COAST CITY SKY/WX TMP DP RH WIND PRES REMARKS EDENTON CLOUDY 34 32 92 N12 29.67S ELIZABETH CITY CLOUDY 34 30 86 N17G26 29.66S KITTY HAWK LGT RAIN 35 34 96 NW8G24 29.62S MANTEO CLOUDY 36 32 87 NW13G22 29.64S $$ NCZ045>047-081-094-103-104-271000- CENTRAL COAST CITY SKY/WX TMP DP RH WIND PRES REMARKS FRISCO CLOUDY 39 35 86 N12G23 29.61S SWANQUARTER NOT AVBL $$ NCZ095-097-098-100-101-271000- SOUTHERN COAST CITY SKY/WX TMP DP RH WIND PRES REMARKS BEAUFORT CLOUDY 42 37 82 N16 29.63F CEDAR ISLAND NOT AVBL JACKSONVILLE CLOUDY 43 35 73 NW17 29.67R PINEY ISLAND N/A N/A N/A N/A MISG 29.63S WILMINGTON CLOUDY 44 38 79 NW12 29.68S $$ NCZ011>013-027>030-043-044-078>080-089-090>093-098-271000- COASTAL PLAIN CITY SKY/WX TMP DP RH WIND PRES REMARKS AHOSKIE CLOUDY 33 28 81 N7 29.70S CLINTON CLOUDY 39 37 90 N9 29.72R ELIZABETHTOWN CLOUDY 42 33 73 NW10 29.72R GOLDSBORO MIX PCPN 39 39 100 NW12 29.69R GREENVILLE NOT AVBL HAVELOCK CLOUDY 43 36 76 N16 29.65F KENANSVILLE LGT RAIN 41 36 83 NW10 29.70R KINSTON CLOUDY 39 31 73 NW13G22 29.69R NEW BERN CLOUDY 43 34 70 N14G21 29.66S RICHLANDS CLOUDY 43 34 70 NW6 29.68R ROCKY MOUNT CLOUDY 37 30 75 N9 29.71R WASHINGTON CLOUDY 37 33 85 N10 29.67S WHITEVILLE CLOUDY 42 33 69 W5 29.72R $$ AMZ130-135-150-152-154-156-158-170-250-252-270-ANZ085-086-088-633-658-670-271000- MARINE OBSERVATIONS STATION/POSITION TIME TEMP WIND PRES WAVE SWELL AIR SEA DIR/SP/G HT/PER HT/PER (UTC) (F) (DEG/KT/KT) (MB) (FT/S) (FT/S) CHESAPEAKE LIGHT 0800 33 340/ 28/ 30 1003.7 64 E VA BEACH 0900 40 52 350/ 29/ 35 1000.2 15/11 8/11 DUCK 0900 35 44 330/ 21/ 26 1002.6 2 E DUCK 0900 44 N/A 8/11 3/11 10 NE DUCK 0900 45 N/A 11/11 5/11 OREGON INLET 0900 36 46 320/ 17/ 21 1003.0 13E OREGON INLT 0900 45 N/A 10/11 3/11 HATTERAS CG 0900 41 50 340/ 22/ 26 1002.8 DIAMOND BUOY 0900 44 67 330/ 25/ 29 1001.3 6/ 7 17 S OCRACOKE NOT AVBL CAPE LOOKOUT 0800 45 330/ 20/ 23 1003.0 BEAUFORT LAB 0900 43 50 330/ 9/ 16 1002.3 27 SE WRIGHTSVLE NOT AVBL 5 SE WRIGHTSVLE 0800 47 53 330/ 21/ 25 1004.3 225 S CAPE HAT 0837 62 72 280/ 27/ 33 1001.2 14/10 41 SE CHARLESTON 0900 47 68 300/ 25/ 33 1007.1 7/ 8 2/15 $$

USA.gov is the U.S. government's official web portal to all federal, state and local government web resources and services.